RH
52 48 41 36 32 24 22 20 16 14 13 11 11 11 10 10 9 10 11 12 13 13 13 14 15 17 18 19 18 17 16 16 15 15 14 14 13 12 11 10 9 8 8 8 6 4 4 4 4
62 61 58 48 38 31 30 26 20 20 16 16 15 14 14 12 12 14 16 19 18 18 19 20 21 21 21 20 18 17 16 15 14 14 13 13 12 12 12 12 12 12 12 11 12 11 10 10 8
67 65 63 49 47 40 43 47 31 24 22 21 20 18 18 16 16 17 18 21 22 23 24 25 23 20 19 17 16 15 14 13 12 10 9 8 6 5 4 3 3 3 4 4 5 6 8 11 12
82 68 62 56 51 53 59 61 40 34 31 28 25 24 23 22 21 22 23 27 29 28 28 26 23 19 15 14 13 12 10 8 5 4 4 4 3 3 2 2 2 2 3 3 4 5 8 10 12
94 80 65 60 60 60 65 56 48 44 43 38 35 32 30 28 27 27 30 31 31 29 27 24 19 16 13 11 9 7 6 5 5 4 3 2 2 2 2 2 2 2 3 3 4 4 5 6 7
97 97 89 68 62 71 66 56 52 55 52 47 46 42 37 35 34 32 33 32 30 29 25 20 15 12 9 7 6 5 5 5 5 3 2 2 2 2 3 3 3 4 6 5 4 3 4 5 5
97 97 96 97 84 84 81 70 51 47 52 59 53 48 41 39 38 36 34 32 27 23 18 14 11 9 7 6 5 5 5 4 3 3 3 3 3 3 3 5 8 12 10 5 4 3 3 4 4
97 98 97 94 96 91 83 78 60 43 38 45 52 50 55 44 36 34 30 25 17 14 12 10 9 8 7 6 6 6 5 3 3 3 4 3 3 3 5 9 13 17 11 4 3 4 4 4 4
98 97 97 90 87 96 98 87 68 51 33 33 40 41 36 36 31 27 21 16 13 11 9 9 8 8 8 8 7 6 4 3 3 3 3 3 3 3 5 9 12 14 7 3 3 3 4 4 5
89 90 96 97 77 55 96 93 71 58 36 28 31 32 30 28 23 18 15 13 11 10 9 8 8 8 7 7 6 4 3 3 3 3 3 3 4 4 5 7 9 11 4 4 4 4 5 7 7
90 82 74 52 98 65 82 93 76 60 42 29 27 29 26 24 20 17 14 12 10 10 10 9 8 8 6 5 4 4 4 4 4 4 4 5 8 11 13 8 8 7 4 4 5 5 6 8 8
93 63 51 48 85 82 49 93 77 63 43 33 25 24 24 21 18 15 14 12 12 10 10 9 8 7 5 4 4 6 6 6 6 5 8 11 12 22 34 29 9 6 7 5 5 6 6 6 6
98 67 52 63 73 81 50 92 90 68 43 37 30 23 24 21 18 15 13 14 13 11 10 8 8 6 5 5 5 7 10 11 11 11 11 10 9 8 14 28 29 10 12 7 6 6 7 7 7
97 100 70 66 74 71 60 88 92 68 49 43 33 28 23 21 18 15 17 16 13 11 10 8 6 6 11 20 21 19 14 14 11 16 17 11 9 8 9 18 43 37 26 10 6 6 9 11 16
78 98 93 66 67 92 96 73 67 84 57 42 35 30 26 21 18 18 19 17 14 12 11 9 6 6 6 8 14 9 8 6 7 6 6 6 7 11 10 10 16 34 38 56 52 20 11 15 17
60 94 100 77 72 94 95 77 67 91 71 47 38 30 26 23 21 20 19 18 15 13 12 13 14 10 13 7 8 9 12 11 8 11 14 13 13 9 10 10 14 19 22 32 44 67 72 32 26
58 65 95 100 96 96 90 75 67 67 89 57 43 38 30 24 22 21 21 18 16 15 13 11 10 8 8 8 8 11 9 10 9 9 10 12 15 16 13 12 18 15 13 14 21 32 44 60 61
52 47 74 99 98 95 89 73 67 63 74 81 48 40 36 32 28 23 21 17 16 16 16 13 10 10 10 10 9 9 14 17 9 8 8 11 10 20 17 22 24 27 21 19 19 15 14 28 47
74 58 60 94 96 96 91 86 60 57 62 66 57 43 38 34 30 26 21 18 19 19 19 16 12 10 10 10 10 9 12 12 10 8 10 10 16 18 20 20 21 29 31 17 26 14 11 13 18
69 59 69 75 84 94 98 91 66 49 54 70 67 54 40 33 28 23 19 19 19 17 17 16 13 10 11 12 11 10 8 9 10 10 10 10 17 21 18 22 24 40 38 37 29 33 35 36 21
69 57 65 59 71 91 97 89 70 59 53 57 70 56 47 37 28 22 19 18 17 15 15 15 13 11 11 12 11 10 9 8 10 10 10 9 8 12 18 22 24 35 40 42 53 48 47 54 67
76 57 61 59 74 100 95 80 69 52 48 47 52 40 33 28 24 19 16 14 12 11 11 11 11 10 10 10 10 10 9 8 7 8 8 8 8 8 7 8 15 18 19 18 26 33 37 50 70
85 62 58 61 84 91 92 77 70 61 36 28 26 33 21 17 15 14 12 12 12 12 11 11 11 10 9 9 9 9 8 8 7 8 9 9 9 9 10 11 10 10 10 15 22 38 35 30 42
94 67 64 75 90 94 96 95 69 51 38 33 29 22 20 18 17 15 13 13 12 12 10 10 9 9 9 9 8 8 10 13 14 14 13 12 10 9 9 9 12 11 14 16 17 25 26 32 39
97 75 72 82 80 75 96 89 73 61 52 47 44 34 30 19 18 17 16 16 14 14 12 11 10 9 9 8 10 14 16 16 13 10 10 10 9 9 10 12 16 22 28 33 37 29 22 32 34
99 98 71 77 65 61 82 81 72 58 55 50 50 48 47 42 33 28 26 25 19 15 13 11 10 9 10 14 18 17 11 10 12 10 9 9 9 9 12 17 15 9 12 17 22 29 44 60 58
96 95 79 84 70 54 52 61 73 64 61 57 51 43 40 35 30 23 20 18 16 12 11 10 10 13 18 17 12 11 13 10 10 10 9 8 8 8 7 7 8 10 16 24 33 41 47 49 72
100 100 90 82 76 68 55 50 50 58 60 39 29 27 23 18 16 14 12 12 12 11 12 15 18 18 15 13 13 12 10 10 10 10 10 9 10 11 10 10 12 11 16 23 31 40 46 44 45
100 96 88 80 68 61 55 46 44 44 44 42 36 30 24 21 19 16 15 15 17 19 19 18 17 15 13 13 11 12 11 11 12 10 8 9 11 13 11 13 12 16 14 20 26 43 39 59 50
99 98 100 100 98 91 78 64 53 48 44 42 36 31 28 24 25 24 22 21 20 18 16 16 15 12 12 14 14 12 12 14 11 8 8 8 10 13 13 11 18 24 21 28 39 41 63 75 84
Wind_Speed
48 45 44 42 40 38 35 35 36 30 28 31 23 22 22 22 23 22 17 14 15 13 12 12 11 11 12 14 13 13 13 14 14 15 16 16 17 16 17 17 17 17 17 17 17 18 19 20 20
51 48 45 45 43 40 36 36 35 33 34 25 25 25 23 30 22 21 19 16 16 15 15 14 15 14 13 14 14 12 13 14 14 15 14 14 14 14 15 16 16 16 17 17 17 17 17 18 18
54 52 49 49 44 41 36 33 38 38 30 32 28 29 30 28 22 21 21 17 17 17 16 16 16 15 14 13 14 14 13 14 14 15 15 15 15 16 17 17 16 17 17 18 18 18 18 19 18
55 55 53 52 47 40 39 39 44 36 33 33 29 32 29 28 23 24 21 20 19 19 18 17 18 18 16 14 14 14 15 15 15 15 16 17 18 19 19 18 18 17 17 18 17 17 17 18 18
57 56 57 54 47 43 36 47 45 36 37 34 32 34 32 31 27 25 23 23 21 19 21 20 19 19 18 16 17 16 15 17 18 19 20 20 19 18 19 19 19 19 18 18 19 19 19 20 20
46 55 58 55 50 44 43 47 44 38 36 33 33 36 32 32 29 28 26 25 25 22 23 22 21 20 19 18 17 18 19 19 20 22 21 20 20 20 21 20 19 19 18 19 19 20 20 21 22
41 44 43 55 48 46 42 43 41 39 37 33 39 36 35 33 32 30 28 27 26 24 24 23 22 21 21 20 20 21 22 23 21 20 21 20 21 20 21 21 21 20 20 20 20 20 21 21 21
43 37 50 43 45 48 42 42 43 39 39 42 38 39 35 32 32 32 29 26 26 25 24 24 23 22 23 23 23 25 25 24 22 20 20 21 21 22 22 22 22 21 21 20 20 21 21 21 21
49 52 43 49 42 43 32 43 43 41 40 41 36 44 41 30 31 31 29 28 26 26 25 24 24 25 26 26 27 27 26 24 23 22 22 21 22 22 22 23 24 23 22 20 19 20 20 21 21
61 57 40 37 40 43 39 36 46 42 39 37 39 37 36 33 32 31 30 29 27 27 26 26 26 28 28 29 29 27 26 25 23 24 24 24 23 22 24 24 25 24 22 22 20 20 21 22 23
55 56 40 43 45 43 46 43 44 43 42 40 41 39 39 34 33 31 30 30 29 28 26 28 29 30 30 29 28 27 26 25 25 25 27 26 24 25 25 26 26 25 24 23 23 23 24 24 24
47 45 47 46 51 42 45 50 38 43 43 44 45 48 38 36 35 33 32 31 29 28 27 29 30 31 29 29 27 26 25 27 27 27 27 27 25 24 26 27 26 25 26 25 26 25 26 26 26
48 49 49 49 48 45 44 44 42 45 45 47 47 39 36 39 36 34 33 32 29 27 30 31 30 30 30 29 28 27 27 26 29 28 29 29 29 27 26 28 26 26 26 28 28 29 28 28 29
52 50 52 54 49 43 38 42 51 42 48 48 44 41 41 40 37 35 33 32 30 30 31 30 31 31 30 29 27 28 28 28 29 30 30 30 31 31 31 30 28 27 28 29 29 29 30 30 31
56 56 54 56 51 49 47 44 48 48 48 43 43 42 41 39 38 35 33 33 32 32 31 29 32 34 31 29 29 29 30 30 29 31 31 32 33 33 34 33 32 31 32 32 32 32 30 31 33
54 59 52 54 49 45 45 46 46 46 46 42 44 42 41 39 37 35 34 33 33 33 32 33 34 34 33 31 30 31 31 32 32 32 33 33 35 37 37 37 37 37 36 36 37 37 34 34 35
54 55 51 49 50 44 43 44 46 43 49 45 43 43 42 39 38 36 35 36 36 36 35 35 34 33 33 33 32 32 35 34 35 37 37 37 37 39 41 40 40 41 41 40 39 42 42 42 40
49 49 51 45 47 48 48 42 48 47 44 46 42 43 43 41 40 38 39 40 38 36 35 34 33 33 34 35 36 33 36 37 38 39 39 40 40 40 42 43 43 43 44 42 42 44 46 45 46
46 48 45 43 47 45 49 48 44 46 45 44 46 45 44 43 43 44 42 37 37 39 38 36 37 35 35 36 37 37 33 37 41 42 42 42 41 42 43 44 45 46 47 47 47 47 48 48 49
46 45 44 45 44 44 44 51 45 45 44 43 46 47 44 42 43 42 41 40 41 39 37 36 36 36 36 37 37 39 39 36 39 43 45 46 45 45 47 49 48 47 49 49 50 51 51 51 53
49 45 45 45 37 35 45 48 45 42 41 42 40 43 45 44 43 41 40 41 41 39 37 36 36 37 37 37 38 40 42 42 38 40 45 47 49 49 49 50 51 52 54 52 52 52 53 53 54
46 46 44 43 34 36 43 47 45 42 38 40 41 40 40 40 39 37 38 40 39 37 36 35 36 36 37 38 38 40 42 43 43 41 43 46 48 50 53 53 54 56 57 58 56 56 57 56 54
43 43 43 39 39 39 42 45 44 44 36 33 34 38 36 34 33 32 33 33 33 32 33 34 34 35 37 39 39 40 41 42 43 44 44 45 46 47 48 50 54 55 57 59 60 60 60 60 60
36 43 41 39 39 37 33 44 42 41 35 34 32 31 32 33 33 31 30 31 31 32 34 35 35 37 38 39 39 40 40 40 40 42 44 44 45 46 47 49 52 55 57 59 61 63 64 65 63
30 40 41 41 39 36 32 37 40 41 43 36 35 33 33 32 32 32 31 32 33 34 36 37 38 38 39 39 38 38 39 40 40 40 40 42 44 44 46 50 52 55 58 61 63 66 69 68 68
30 33 39 41 38 35 32 33 35 43 36 34 36 39 37 36 35 35 35 36 36 37 38 39 39 38 38 37 38 38 37 36 37 37 36 39 43 46 50 53 51 52 58 62 64 66 68 69 68
29 30 35 38 38 36 35 34 33 35 32 31 32 32 34 35 37 38 39 39 39 39 39 38 37 37 36 36 36 36 36 34 33 35 35 39 44 46 46 46 53 56 61 66 69 70 69 68 67
26 27 30 32 34 35 36 34 33 31 33 31 31 31 32 33 35 36 37 39 39 38 37 36 35 34 35 35 35 33 29 30 32 34 39 42 42 42 43 48 54 61 67 62 58 63 65 63 63
21 23 25 28 29 31 32 35 35 32 34 34 32 32 31 32 33 35 35 36 35 35 34 34 33 35 35 34 30 27 28 31 33 36 34 34 38 37 41 48 54 61 57 58 50 52 56 52 53
19 19 19 18 22 21 27 33 33 34 37 35 33 34 34 34 34 33 33 33 33 32 33 34 35 33 30 27 27 29 32 31 29 31 32 35 33 32 38 45 52 53 45 51 49 48 46 50 47
Wind_Direction
207 208 208 210 210 206 205 209 215 216 215 220 221 222 224 228 227 230 226 224 231 240 245 250 254 261 270 275 274 278 280 284 285 287 287 289 292 293 293 295 298 301 301 305 305 303 302 301 300
208 209 209 212 210 209 206 215 211 215 215 219 218 221 220 230 224 229 235 230 237 245 247 251 256 260 263 267 272 274 277 280 282 285 289 294 297 298 300 299 299 299 298 298 298 300 301 303 303
209 211 211 212 210 210 207 214 214 216 213 215 218 223 222 228 223 233 237 236 239 246 249 251 257 259 258 259 267 272 273 278 282 284 287 291 293 294 294 295 294 294 295 295 295 296 298 299 299
208 212 213 213 211 209 212 215 219 210 215 216 217 226 230 230 228 232 236 239 241 244 249 252 256 258 258 259 258 267 278 281 283 287 288 288 289 289 289 290 290 293 295 297 298 298 298 297 295
215 215 216 216 212 210 213 226 222 209 216 218 218 224 224 231 230 232 233 242 242 247 252 254 256 260 264 264 266 266 268 279 286 287 288 290 292 294 294 294 295 297 301 304 303 302 300 299 295
211 217 218 219 215 213 212 225 226 222 217 220 224 229 224 230 232 232 234 240 245 245 251 253 256 260 263 265 267 271 275 278 285 289 289 292 295 295 294 295 297 299 302 302 301 299 296 296 295
197 208 210 217 214 214 217 225 224 226 224 222 227 232 228 226 232 236 238 241 245 244 248 251 257 262 267 273 277 279 282 286 286 288 291 292 294 294 296 299 301 300 299 298 298 297 295 293 294
201 215 227 216 216 216 221 226 224 224 223 224 227 232 227 225 234 239 242 240 242 245 245 255 260 266 272 276 280 283 286 287 291 291 290 293 294 298 299 298 297 296 299 300 298 297 297 296 295
222 214 222 223 220 219 218 228 222 224 226 226 225 231 235 229 233 237 238 236 239 245 250 254 261 267 271 275 280 283 286 290 291 292 294 294 295 295 295 296 296 296 299 297 296 297 297 297 297
229 211 207 214 217 221 211 226 220 225 224 223 227 233 236 228 229 230 233 237 240 244 251 257 261 266 268 272 277 280 285 288 291 292 292 294 296 295 295 295 294 295 296 296 295 293 293 295 296
231 230 228 227 226 219 224 218 217 220 224 223 224 227 231 229 229 232 234 239 243 248 255 261 265 267 271 273 273 277 281 285 287 289 291 294 298 299 299 298 296 296 295 293 290 288 288 291 295
224 223 220 219 226 213 222 229 225 222 222 223 222 225 226 229 230 229 234 239 245 252 257 261 264 268 269 270 272 276 279 284 286 290 291 292 294 293 294 297 297 296 295 291 289 287 288 291 292
215 217 218 221 222 212 218 223 222 225 223 224 226 227 223 229 230 233 236 242 247 251 257 261 264 265 268 270 274 276 280 283 286 287 288 288 290 288 287 289 292 293 293 293 291 292 292 293 294
219 218 216 222 222 218 222 224 221 222 226 224 226 225 224 227 228 233 240 246 248 251 255 262 267 267 267 271 275 280 281 283 284 287 290 293 292 292 290 288 288 289 289 287 287 289 290 291 290
221 217 219 225 225 226 219 219 226 221 224 229 229 228 227 228 229 231 237 245 250 254 258 262 263 265 268 272 274 277 280 281 285 288 291 294 293 293 293 291 288 285 284 284 284 286 287 286 287
220 224 215 221 223 223 222 218 227 228 225 229 229 231 230 230 232 234 239 245 251 255 257 256 260 265 268 270 272 277 280 283 286 286 288 290 291 290 290 290 289 287 285 284 286 286 285 285 284
219 224 216 216 222 216 220 220 225 228 227 227 232 233 234 232 233 236 241 245 249 253 257 262 265 264 270 273 273 273 276 278 282 283 286 286 286 289 290 289 288 289 289 290 289 287 285 283 282
221 224 221 219 218 222 220 217 227 227 230 228 235 237 237 238 239 240 240 245 251 258 262 262 261 262 264 267 272 273 279 283 282 284 286 287 289 288 286 286 286 286 287 287 285 283 283 283 282
217 219 226 230 223 214 221 217 226 229 226 229 235 238 241 242 243 242 243 249 253 252 254 257 259 261 263 268 270 273 274 279 285 286 286 288 288 288 287 284 284 284 283 282 279 279 279 279 278
215 216 222 231 229 224 220 219 220 229 227 228 233 238 244 246 247 247 247 248 251 254 258 257 257 260 263 267 272 275 276 274 277 283 287 285 283 282 282 283 283 280 280 280 281 280 278 277 276
214 217 218 231 229 230 223 217 218 226 228 229 234 238 243 247 249 249 249 250 252 253 252 252 255 259 263 268 272 276 278 280 277 277 279 282 284 284 282 281 282 282 280 279 276 277 278 276 276
214 213 217 225 228 229 221 220 215 222 224 225 231 237 241 245 247 246 245 248 248 250 252 254 256 259 265 268 271 273 277 280 281 277 276 279 280 281 283 284 284 282 281 282 281 277 275 273 272
218 214 218 222 226 229 220 223 217 221 224 224 225 233 241 245 248 247 248 249 249 252 257 261 266 267 268 269 271 272 273 274 276 279 279 278 277 279 280 281 282 281 282 282 281 279 277 275 273
219 215 216 220 230 232 220 220 221 216 222 225 228 233 238 244 248 251 253 253 256 259 262 264 266 267 268 269 271 272 274 275 277 278 280 281 282 282 283 283 283 282 282 280 279 278 277 276 273
221 219 215 222 228 231 223 220 219 222 221 227 231 234 240 245 248 250 253 257 259 260 261 262 264 266 267 268 270 271 273 277 279 280 282 285 287 289 287 284 283 283 284 283 281 277 275 274 273
231 225 223 223 227 234 230 230 221 227 227 230 236 236 239 246 253 256 257 258 258 259 259 261 263 264 266 267 269 273 274 275 279 285 287 289 289 288 286 288 291 294 292 287 282 279 275 270 268
224 222 224 225 230 232 236 236 236 237 234 233 238 240 242 246 249 252 253 254 255 256 258 260 260 261 264 268 270 271 274 281 283 283 285 288 292 295 295 295 297 295 294 289 284 280 275 271 266
221 216 217 224 232 236 240 243 245 242 243 243 244 243 243 244 248 249 250 252 254 255 257 257 259 262 264 265 268 274 277 280 283 285 290 296 297 297 297 296 300 302 302 300 292 284 279 273 268
221 218 221 229 236 242 246 242 240 242 245 246 246 249 249 248 247 247 248 250 251 253 254 256 259 260 262 269 272 273 279 282 286 293 297 294 298 296 301 303 305 305 304 303 302 297 282 272 267
199 210 212 217 231 236 244 251 251 250 249 251 249 251 251 249 247 247 249 250 251 254 256 257 259 264 268 265 269 274 280 281 290 288 297 304 301 301 310 312 314 310 307 308 307 301 292 277 269